Regional Weather Roundup
Issued by NWS Midland/Odessa, TX

Home | Current Version | Previous Version | Text Only | Print | Product List | Glossary On
Versions: 1 2 3 4 5 6 7 8 9 10 11 12 13 14 15 16 17 18 19 20 21 22 23 24 25 26 27 28 29 30 31 32 33 34 35 36 37 38 39 40 41 42 43 44 45 46 47 48 49 50
000
ASUS44 KMAF 232010
RWRMAF
MIDLAND AREA WEATHER ROUNDUP
NATIONAL WEATHER SERVICE MIDLAND TX
300 PM CDT WED MAY 23 2018

...IN SOUTHWEST TEXAS AND SOUTHEAST NEW MEXICO...

CITY           SKY/WX    TMP DP  RH WIND       PRES   REMARKS
ALPINE         SUNNY     88  57  34 SE14      30.09F
ANDREWS        FAIR      87  58  37 SE17G24   30.03F
ARTESIA        MOSUNNY   84  63  48 SE13      29.99F
BIG SPRING     MOSUNNY   87  59  39 SE15G24   30.04F
CARLSBAD       MOSUNNY   88  60  38 SE14      29.96F
DRYDEN           N/A     88  64  44 E16       29.96F
FORT STOCKTON  CLOUDY    86  61  42 SE20G26   29.98F
GUAD PASS      MOSUNNY   83  58  42 E15G23    30.11
HOBBS          MOSUNNY   86  57  37 SE15G29   30.02F
LAMESA         CLOUDY    86  61  42 SE18G26   30.05F
MARFA          NOT AVBL
MIDLAND AIRPK    N/A     91  57  31 E15G22    30.02F
MIDLAND INTL     N/A     89  58  34 SE20G30   30.01F
ODESSA         SUNNY     88  57  34 SE14G26   30.01F
PECOS          MOSUNNY   89  61  39 E13G21    29.95S
PRESIDIO       FAIR      94  54  25 CALM      29.93F
SEMINOLE       SUNNY     84  58  41 SE14G24   30.04F
SNYDER         MOSUNNY   86  61  42 SE15      30.04F
WINK             N/A    N/A N/A N/A MISG        N/A
$$
...OTHER STATIONS IN TEXAS...

CITY           SKY/WX    TMP DP  RH WIND       PRES   REMARKS
ABILENE        PTSUNNY   86  59  39 SE12      30.02F
AMARILLO       SUNNY     85  50  29 S15       30.06F
AUSTIN         MOSUNNY   88  68  51 E6        29.99F
BROWNSVILLE    PTSUNNY   92  74  55 SE15G22   29.94S HX 101
CORPUS CHRISTI PTSUNNY   88  74  63 E14G22    29.96S
DALLAS FTW     PTSUNNY   89  66  46 SE10      30.00F
DEL RIO        MOSUNNY   91  65  41 SE13      29.94F
EL PASO        MOSUNNY   90  25   9 SW12G21   30.00F
HOUSTON INT    CLOUDY    81  72  74 E9        30.04F
LUBBOCK        MOSUNNY   84  60  44 S18G24    30.06F
SAN ANGELO     PTSUNNY   88  62  41 S14G20    30.01F
SAN ANTONIO    PTSUNNY   89  63  41 VRB3      29.99F
WACO           SUNNY     89  66  46 VRB3      30.01F
WICHITA FALLS  MOSUNNY   87  63  44 SE10      30.00F
$$
...OTHER LOCATIONS IN NEW MEXICO...

CITY           SKY/WX    TMP DP  RH WIND       PRES   REMARKS
ALAMOGORDO     SUNNY     88  25  10 SW13G18   30.01F
ALBUQUERQUE    MOSUNNY   82  27  13 SW21      30.06F
CANNON AFB     PTSUNNY   77  64  62 SE16G23   30.10F
CLOVIS         PTSUNNY   79  61  53 S16G25    30.10F
HOLLOMAN AFB   MOSUNNY   91  19   7 S14G23    30.02
ROSWELL        MOSUNNY   84  61  45 SE14      30.01F
RUIDOSO        SUNNY     68  55  64 SE15      30.21F
SANTA FE       PTSUNNY   76  41  28 S22G29    30.11F
TRUTH OR CONSE SUNNY     87  13   6 S16G24    30.02F
TUCUMCARI      CLOUDY    79  60  52 S15       30.05F
$$




USA.gov is the U.S. government's official web portal to all federal, state and local government web resources and services.